VOZ850 YSSY-YMML

Flight info

Callsign VOZ850
Flight time 1h 23m
Altitude 38000
Route DCT TESAT H65 LEECE Q29 ML DCT
Aircraft B738/M-SDE2E3FGHIRWXY/LB1

Departure

Time 2026-05-04 08:42
Airport Sydney Kingsford Smith International Airport (YSSY)

Arrival

Time 2026-05-04 10:05
Airport Melbourne Airport (YMML)
Time Latitude Longitude Altitude Speed Heading
2026-05-04 07:59 -33.93510 151.18004 29 ft 0 kts 288°
2026-05-04 08:28 -33.93515 151.18026 29 ft 4 kts 278°
2026-05-04 08:28 -33.93514 151.18057 29 ft 4 kts 251°
2026-05-04 08:28 -33.93503 151.18081 29 ft 1 kts 223°
2026-05-04 08:29 -33.93517 151.18071 29 ft 4 kts 201°
2026-05-04 08:29 -33.93526 151.18069 29 ft 0 kts 192°
2026-05-04 08:33 -33.93948 151.17792 28 ft 15 kts 168°
2026-05-04 08:33 -33.94054 151.17820 28 ft 16 kts 168°
2026-05-04 08:35 -33.94941 151.17989 29 ft 22 kts 168°
2026-05-04 08:35 -33.95064 151.18025 29 ft 16 kts 154°
2026-05-04 08:35 -33.95093 151.18138 29 ft 15 kts 78°
2026-05-04 08:35 -33.95072 151.18259 29 ft 14 kts 77°
2026-05-04 08:37 -33.95480 151.18762 29 ft 19 kts 168°
2026-05-04 08:37 -33.95620 151.18798 29 ft 22 kts 167°
2026-05-04 08:37 -33.95774 151.18839 29 ft 24 kts 168°
2026-05-04 08:38 -33.95940 151.18881 29 ft 24 kts 167°
2026-05-04 08:38 -33.96113 151.18926 29 ft 26 kts 168°
2026-05-04 08:38 -33.96290 151.18972 29 ft 27 kts 168°
2026-05-04 08:40 -33.97059 151.19371 24 ft 0 kts 346°
2026-05-04 08:41 -33.96899 151.19330 23 ft 59 kts 348°
2026-05-04 08:41 -33.96240 151.19160 26 ft 132 kts 348°
2026-05-04 08:42 -33.95170 151.18896 284 ft 170 kts 349°
2026-05-04 08:42 -33.93965 151.18647 1096 ft 178 kts 355°
2026-05-04 08:42 -33.92740 151.19034 1733 ft 200 kts 38°
2026-05-04 08:42 -33.92010 151.20532 2141 ft 223 kts 84°
2026-05-04 08:43 -33.92330 151.22378 2628 ft 235 kts 122°
2026-05-04 08:43 -33.93177 151.24049 3488 ft 230 kts 112°
2026-05-04 08:43 -33.93810 151.25835 4220 ft 234 kts 98°
2026-05-04 08:43 -33.93927 151.27777 4836 ft 239 kts 84°
2026-05-04 08:44 -33.93849 151.29801 4974 ft 244 kts 82°
2026-05-04 08:44 -33.93746 151.31851 5000 ft 245 kts 83°
2026-05-04 08:46 -33.93215 151.46435 6183 ft 287 kts 84°
2026-05-04 08:46 -33.93168 151.48928 6657 ft 307 kts 91°
2026-05-04 08:46 -33.93812 151.51421 7094 ft 322 kts 120°
2026-05-04 08:46 -33.95348 151.53408 7547 ft 329 kts 146°
2026-05-04 08:47 -33.97443 151.54473 8001 ft 330 kts 171°
2026-05-04 08:47 -33.99760 151.54458 8487 ft 341 kts 194°
2026-05-04 08:47 -34.01983 151.53404 8990 ft 348 kts 213°
2026-05-04 08:47 -34.03279 151.52261 9314 ft 349 kts 225°
2026-05-04 08:48 -34.05509 151.49406 10251 ft 353 kts 233°
2026-05-04 08:48 -34.07066 151.47132 11189 ft 351 kts 234°
2026-05-04 08:48 -34.08088 151.45619 11777 ft 351 kts 234°
2026-05-04 08:48 -34.09647 151.43335 12559 ft 355 kts 233°
2026-05-04 08:49 -34.11245 151.41038 13284 ft 359 kts 233°
2026-05-04 08:50 -34.21385 151.26931 17371 ft 381 kts 233°
2026-05-04 08:50 -34.23137 151.24511 17982 ft 384 kts 233°
2026-05-04 08:51 -34.24909 151.22061 18588 ft 388 kts 233°
2026-05-04 08:51 -34.26669 151.19629 19202 ft 390 kts 233°
2026-05-04 08:51 -34.28460 151.17152 19825 ft 392 kts 233°
2026-05-04 08:51 -34.30261 151.14658 20411 ft 395 kts 233°
2026-05-04 08:52 -34.32075 151.12144 20980 ft 397 kts 234°
2026-05-04 08:52 -34.33901 151.09612 21537 ft 400 kts 234°
2026-05-04 08:52 -34.35733 151.07071 22077 ft 402 kts 234°
2026-05-04 08:52 -34.37576 151.04511 22578 ft 405 kts 234°
2026-05-04 08:53 -34.39434 151.01928 23064 ft 407 kts 234°
2026-05-04 08:54 -34.52682 150.83462 26096 ft 424 kts 235°
2026-05-04 08:55 -34.54624 150.80747 26472 ft 427 kts 236°
2026-05-04 08:55 -34.56535 150.77991 26837 ft 427 kts 238°
2026-05-04 08:55 -34.58342 150.75120 27184 ft 428 kts 240°
2026-05-04 08:55 -34.60098 150.72186 27514 ft 430 kts 241°
2026-05-04 08:57 -34.72523 150.51308 30315 ft 432 kts 242°
2026-05-04 09:01 -34.96306 150.11389 35104 ft 416 kts 242°
2026-05-04 09:01 -34.98002 150.08528 35381 ft 415 kts 243°
2026-05-04 09:01 -34.99673 150.05704 35606 ft 416 kts 243°
2026-05-04 09:01 -35.01366 150.02838 35804 ft 417 kts 243°
2026-05-04 09:02 -35.03058 149.99974 36072 ft 415 kts 243°
2026-05-04 09:02 -35.04740 149.97126 36376 ft 413 kts 243°
2026-05-04 09:02 -35.06425 149.94269 36537 ft 415 kts 243°
2026-05-04 09:02 -35.08114 149.91405 36718 ft 416 kts 243°
2026-05-04 09:03 -35.09796 149.88556 37015 ft 413 kts 243°
2026-05-04 09:03 -35.11466 149.85735 37508 ft 405 kts 243°
2026-05-04 09:03 -35.13110 149.82953 37834 ft 402 kts 243°
2026-05-04 09:03 -35.14739 149.80186 37955 ft 403 kts 243°
2026-05-04 09:04 -35.16381 149.77387 38051 ft 405 kts 243°
2026-05-04 09:04 -35.19660 149.71791 38086 ft 410 kts 243°
2026-05-04 09:05 -35.23004 149.66082 38074 ft 415 kts 243°
2026-05-04 09:05 -35.26383 149.60315 38080 ft 419 kts 243°
2026-05-04 09:06 -35.29784 149.54499 38073 ft 419 kts 243°
2026-05-04 09:07 -35.41397 149.34575 38078 ft 405 kts 243°
2026-05-04 09:08 -35.43006 149.31801 38073 ft 406 kts 243°
2026-05-04 09:08 -35.46282 149.26142 38083 ft 407 kts 244°
2026-05-04 09:09 -35.49570 149.20461 38079 ft 408 kts 244°
2026-05-04 09:09 -35.52871 149.14749 38076 ft 411 kts 244°
2026-05-04 09:10 -35.56163 149.09044 38073 ft 413 kts 244°
2026-05-04 09:10 -35.59489 149.03272 38071 ft 415 kts 243°
2026-05-04 09:11 -35.62826 148.97474 38086 ft 416 kts 243°
2026-05-04 09:11 -35.66167 148.91652 38076 ft 416 kts 243°
2026-05-04 09:12 -35.69507 148.85825 38087 ft 417 kts 243°
2026-05-04 09:14 -35.82861 148.62428 38073 ft 418 kts 244°
2026-05-04 09:14 -35.86195 148.56562 38072 ft 417 kts 244°
2026-05-04 09:15 -35.89517 148.50698 38080 ft 417 kts 244°
2026-05-04 09:15 -35.92819 148.44832 38086 ft 415 kts 244°
2026-05-04 09:17 -36.07626 148.18391 38070 ft 417 kts 244°
2026-05-04 09:18 -36.10925 148.12476 38063 ft 418 kts 244°
2026-05-04 09:18 -36.14226 148.06558 38065 ft 418 kts 244°
2026-05-04 09:19 -36.17519 148.00666 38053 ft 419 kts 244°
2026-05-04 09:19 -36.20829 147.94730 38055 ft 419 kts 244°
2026-05-04 09:20 -36.24140 147.88780 38058 ft 419 kts 244°
2026-05-04 09:20 -36.27454 147.82811 38050 ft 420 kts 244°
2026-05-04 09:21 -36.30745 147.76877 38049 ft 419 kts 244°
2026-05-04 09:21 -36.34053 147.70900 38044 ft 420 kts 244°
2026-05-04 09:22 -36.37349 147.64925 38040 ft 420 kts 244°
2026-05-04 09:22 -36.40643 147.58939 38044 ft 420 kts 244°
2026-05-04 09:23 -36.43940 147.52936 38036 ft 421 kts 244°
2026-05-04 09:23 -36.47243 147.46912 38042 ft 422 kts 244°
2026-05-04 09:25 -36.60409 147.22805 38011 ft 420 kts 244°
2026-05-04 09:26 -36.63686 147.16774 38006 ft 420 kts 244°
2026-05-04 09:26 -36.66960 147.10738 37999 ft 421 kts 244°
2026-05-04 09:27 -36.70233 147.04698 37991 ft 421 kts 244°
2026-05-04 09:27 -36.73515 146.98636 37805 ft 425 kts 244°
2026-05-04 09:28 -36.75174 146.95566 37556 ft 427 kts 244°
2026-05-04 09:28 -36.76814 146.92535 37296 ft 426 kts 244°
2026-05-04 09:28 -36.78465 146.89484 36703 ft 423 kts 244°
2026-05-04 09:28 -36.80101 146.86461 36135 ft 418 kts 245°
2026-05-04 09:29 -36.81727 146.83449 35493 ft 419 kts 245°
2026-05-04 09:29 -36.83355 146.80422 34834 ft 421 kts 245°
2026-05-04 09:29 -36.84990 146.77378 34153 ft 423 kts 245°
2026-05-04 09:29 -36.86631 146.74320 33479 ft 425 kts 245°
2026-05-04 09:30 -36.88284 146.71240 32746 ft 428 kts 245°
2026-05-04 09:30 -36.89942 146.68150 32005 ft 430 kts 245°
2026-05-04 09:30 -36.91610 146.65037 31255 ft 432 kts 246°
2026-05-04 09:30 -36.93290 146.61901 30476 ft 435 kts 246°
2026-05-04 09:31 -36.94969 146.58769 29936 ft 431 kts 246°
2026-05-04 09:31 -36.96625 146.55687 29352 ft 421 kts 246°
2026-05-04 09:31 -36.98236 146.52691 28937 ft 406 kts 246°
2026-05-04 09:31 -36.99770 146.49838 28804 ft 385 kts 247°
2026-05-04 09:32 -37.01211 146.47152 28626 ft 369 kts 245°
2026-05-04 09:32 -37.02981 146.44757 28076 ft 386 kts 227°
2026-05-04 09:34 -37.22734 146.40743 25027 ft 411 kts 192°
2026-05-04 09:34 -37.24610 146.40543 24953 ft 404 kts 192°
2026-05-04 09:34 -37.27366 146.40251 24924 ft 391 kts 192°
2026-05-04 09:34 -37.30038 146.39978 24965 ft 381 kts 192°
2026-05-04 09:35 -37.32715 146.39699 24911 ft 393 kts 193°
2026-05-04 09:35 -37.35516 146.39375 24496 ft 410 kts 192°
2026-05-04 09:35 -37.38361 146.39040 24047 ft 411 kts 192°
2026-05-04 09:35 -37.41216 146.38698 23578 ft 413 kts 192°
2026-05-04 09:37 -37.57275 146.31258 21686 ft 318 kts 262°
2026-05-04 09:37 -37.57811 146.28562 21454 ft 316 kts 269°
2026-05-04 09:38 -37.57964 146.25829 21184 ft 308 kts 282°
2026-05-04 09:38 -37.57607 146.23244 20946 ft 300 kts 289°
2026-05-04 09:38 -37.57104 146.20709 20699 ft 297 kts 290°
2026-05-04 09:38 -37.56571 146.18199 20457 ft 295 kts 291°
2026-05-04 09:39 -37.56038 146.15719 20153 ft 292 kts 291°
2026-05-04 09:39 -37.55510 146.13259 19819 ft 288 kts 291°
2026-05-04 09:39 -37.54997 146.10832 19523 ft 285 kts 290°
2026-05-04 09:39 -37.54488 146.08417 19177 ft 285 kts 290°
2026-05-04 09:40 -37.53983 146.06010 18845 ft 284 kts 290°
2026-05-04 09:40 -37.53480 146.03611 18504 ft 283 kts 290°
2026-05-04 09:40 -37.52979 146.01222 18177 ft 282 kts 290°
2026-05-04 09:40 -37.52480 145.98841 17838 ft 280 kts 290°
2026-05-04 09:41 -37.51987 145.96476 17518 ft 278 kts 289°
2026-05-04 09:42 -37.48112 145.78046 14992 ft 331 kts 287°
2026-05-04 09:43 -37.47523 145.75248 14591 ft 330 kts 287°
2026-05-04 09:43 -37.46932 145.72454 14205 ft 330 kts 287°
2026-05-04 09:43 -37.46343 145.69666 13804 ft 329 kts 287°
2026-05-04 09:43 -37.45789 145.66879 13400 ft 329 kts 281°
2026-05-04 09:44 -37.45838 145.64003 13010 ft 331 kts 262°
2026-05-04 09:44 -37.46594 145.61228 12372 ft 343 kts 244°
2026-05-04 09:44 -37.47904 145.58717 11919 ft 342 kts 237°
2026-05-04 09:46 -37.57023 145.43235 9933 ft 279 kts 239°
2026-05-04 09:46 -37.58173 145.41243 9620 ft 279 kts 239°
2026-05-04 09:46 -37.59311 145.39277 9349 ft 276 kts 240°
2026-05-04 09:47 -37.60441 145.37320 9049 ft 276 kts 240°
2026-05-04 09:47 -37.61569 145.35368 8757 ft 274 kts 240°
2026-05-04 09:49 -37.69144 145.22234 6715 ft 248 kts 240°
2026-05-04 09:49 -37.70154 145.20474 6486 ft 247 kts 240°
2026-05-04 09:49 -37.71149 145.18744 6227 ft 240 kts 240°
2026-05-04 09:51 -37.76905 145.08718 5777 ft 230 kts 240°
2026-05-04 09:51 -37.77819 145.07128 5698 ft 215 kts 241°
2026-05-04 09:51 -37.78688 145.05637 5658 ft 212 kts 236°
2026-05-04 09:51 -37.79949 145.04584 5588 ft 228 kts 202°
2026-05-04 09:52 -37.81556 145.04530 5549 ft 239 kts 175°
2026-05-04 09:52 -37.83200 145.04959 5519 ft 241 kts 172°
2026-05-04 09:52 -37.84835 145.05209 5438 ft 232 kts 194°
2026-05-04 09:52 -37.86309 145.04607 5411 ft 224 kts 211°
2026-05-04 09:53 -37.87739 145.03797 5317 ft 225 kts 211°
2026-05-04 09:53 -37.89166 145.02962 5078 ft 226 kts 212°
2026-05-04 09:53 -37.90584 145.02126 4824 ft 223 kts 212°
2026-05-04 09:53 -37.91973 145.01311 4552 ft 217 kts 212°
2026-05-04 09:54 -37.93340 145.00506 4305 ft 217 kts 212°
2026-05-04 09:54 -37.94710 144.99694 4061 ft 218 kts 211°
2026-05-04 09:54 -37.96084 144.98868 3808 ft 219 kts 212°
2026-05-04 09:54 -37.97452 144.98036 3611 ft 216 kts 212°
2026-05-04 09:55 -37.98748 144.97125 3406 ft 208 kts 228°
2026-05-04 09:55 -37.99472 144.95643 3248 ft 196 kts 258°
2026-05-04 09:55 -37.99838 144.93961 3098 ft 199 kts 262°
2026-05-04 09:55 -38.00178 144.92272 3016 ft 201 kts 262°
2026-05-04 09:56 -38.00529 144.90544 2985 ft 202 kts 262°
2026-05-04 09:56 -38.00750 144.88818 2963 ft 194 kts 282°
2026-05-04 09:56 -38.00206 144.87341 2983 ft 185 kts 318°
2026-05-04 09:56 -37.99130 144.86446 2988 ft 187 kts 330°
2026-05-04 09:57 -37.97983 144.85678 2976 ft 182 kts 332°
2026-05-04 09:57 -37.96896 144.84973 2957 ft 170 kts 334°
2026-05-04 09:57 -37.95743 144.84813 2979 ft 174 kts 11°
2026-05-04 09:57 -37.94751 144.85733 2979 ft 188 kts 51°
2026-05-04 09:58 -37.94182 144.87278 2994 ft 198 kts 61°
2026-05-04 09:58 -37.93695 144.88825 2993 ft 201 kts 62°
2026-05-04 09:58 -37.93192 144.90429 2972 ft 196 kts 60°
2026-05-04 10:00 -37.86312 144.88697 3003 ft 157 kts 332°
2026-05-04 10:00 -37.85330 144.88081 2974 ft 159 kts 332°
2026-05-04 10:02 -37.77366 144.85723 2092 ft 178 kts 348°
2026-05-04 10:04 -37.70192 144.84398 697 ft 129 kts 352°
2026-05-04 10:04 -37.69300 144.84232 531 ft 131 kts 352°
2026-05-04 10:04 -37.68383 144.84059 372 ft 135 kts 352°
2026-05-04 10:04 -37.67533 144.83902 367 ft 106 kts 352°
2026-05-04 10:05 -37.67057 144.83836 383 ft 53 kts
2026-05-04 10:05 -37.66812 144.83928 391 ft 15 kts 22°
2026-05-04 10:05 -37.66795 144.83936 392 ft 0 kts 21°
2026-05-04 10:06 -37.66783 144.83942 392 ft 7 kts 21°
2026-05-04 10:06 -37.66719 144.84035 392 ft 22 kts 70°
2026-05-04 10:06 -37.66806 144.84195 391 ft 23 kts 165°
2026-05-04 10:08 -37.67019 144.84555 389 ft 5 kts 120°
2026-05-04 10:08 -37.67063 144.84572 388 ft 3 kts 171°
2026-05-04 10:08 -37.67075 144.84574 388 ft 0 kts 171°